sat.trackr.live / text

‹ back to catalog

STARLINK-32786

NORAD 62528 · 2025-004T

PAYLOAD ACTIVE UNKNOWN

§ Identity

Operator
Country
US
Launch date
2025-01-08
Launch site
AFETR
Launch vehicle
Mass (kg)
RCS (m²)

Purposes: comms

External: N2YO · Heavens-Above · Gunter

§ Orbital elements

Epoch: 2026-05-24T11:22:33.005568Z

Period
94.27 min
Inclination
43.0034°
Eccentricity
0.0001835
Mean motion
15.27594207 rev/d
Perigee alt
481.7 km
Apogee alt
484.3 km
Semi-major
6,861.1 km
B*
5.4049e-4
RAAN
151.4712°
Arg perigee
268.1075°
Mean anomaly
91.9566°
Rev number
7,710

§ Raw data

STARLINK-327861 62528U 25004T   26144.47399312  .00014647  00000+0  54049-3 0  99952 62528  43.0034 151.4712 0001835 268.1075  91.9566 15.27594207 77109

JSON: /api/v1/satellites/62528 · /tle

For live sub-satellite position, see the globe view (requires WebGL).

§ Visibility from observer

Set your observer location to see the next 7 days of passes ≥ 10°. The values pass through the URL so the page stays shareable.

No JS? Fill the form by hand. The geolocation button needs JavaScript.